Погода в Асбесте

Россия / Свердловская область     57°00′18″N   61°27′29″E
темп.,
°C
ветер,
м/с
пор.,
м/с
влажн.,
%
обл.,
%
осадки,
мм/ч
давл.,
гПа
погр.,
м
18 мая, вт
вт1823:00+16зюз41076100 6.9 1015258
02:00+17юз4108386 0.1 1014354
05:00+16з4108956 0.2 1014300
08:00+19сз36684 0.0 1014483
11:00+23ссз464545 0.0 10141974
14:00+19ссв6761100 0.0 10161057
17:00+18с676077 0.0 10181312
20:00+15ссв4868100 0.0 10201219
19 мая, ср
ср1923:00+14св476560 0.0 1022945
02:00+9ссв27825 0.0 1023194
05:00+8ссв25840 0.0 1024117
08:00+13св34635 0.0 1025791
11:00+17св34445 0.0 10251303
14:00+20св3335100 0.0 10241706
17:00+19св2334100 0.0 10241715
20:00+17св224964 0.0 102433
20 мая, чт
чт2023:00+12всв115811 0.0 102510
02:00+11ююз11635 0.0 102510
05:00+10юз226882 0.0 102615
08:00+16зюз24495 0.0 1025376
11:00+21зюз23335 0.0 10241327
14:00+24зюз23265 0.0 10221732
17:00+25з23240 0.0 10211865
20:00+21юз22400 0.0 102114
21 мая, пт
пт2123:00+16юз37540 0.0 102297
02:00+14юз35605 0.0 102287
05:00+13з22625 0.0 102240
08:00+20зюз12435 0.0 1022234
11:00+25ююз33288 0.0 10211607
14:00+27ююз34245 0.0 10202154
17:00+27ююз44245 0.0 10202436
20:00+23ю37415 0.0 1019178
22 мая, сб
сб2223:00+16ююз27541 0.0 1020122
02:00+15зюз22580 0.0 102019
05:00+14юз35614 0.0 102192
08:00+21зюз5105215 0.0 1020690
11:00+25зюз610374 0.0 10202235
14:00+27зюз693095 0.0 10193145
17:00+26зюз6931100 0.0 10192975
20:00+22зюз51041100 0.0 1019719